Time,TemperatureF,DewpointF,PressureIn,WindDirection,WindDirectionDegrees,WindSpeedMPH,WindSpeedGustMPH,Humidity,HourlyPrecipIn,Conditions,Clouds,dailyrainin,SoftwareType,DateUTC
2013-03-29 00:03:00,41.0,30.0,30.25,ENE,70,5.0,-999.0,65,-99.99,,,-99.99,,2013-03-29 05:03:00,
2013-03-29 00:12:00,41.0,30.0,30.25,ENE,70,5.0,-999.0,65,-99.99,,,-99.99,,2013-03-29 05:12:00,
2013-03-29 00:23:00,39.0,30.0,30.25,ENE,60,6.0,-999.0,69,-99.99,,,-99.99,,2013-03-29 05:23:00,
2013-03-29 00:32:00,39.0,30.0,30.25,ENE,70,5.0,-999.0,69,-99.99,,,-99.99,,2013-03-29 05:32:00,
2013-03-29 00:43:00,39.0,30.0,30.25,ENE,70,5.0,-999.0,69,-99.99,,,-99.99,,2013-03-29 05:43:00,
2013-03-29 00:52:00,39.0,30.0,30.25,ENE,70,5.0,-999.0,69,-99.99,,,-99.99,,2013-03-29 05:52:00,
2013-03-29 01:02:00,39.0,30.0,30.25,ENE,70,6.0,-999.0,69,-99.99,,,-99.99,,2013-03-29 06:02:00,
2013-03-29 01:12:00,39.0,30.0,30.25,ENE,70,6.0,-999.0,69,-99.99,,,-99.99,,2013-03-29 06:12:00,
2013-03-29 01:23:00,39.0,30.0,30.25,ENE,60,6.0,-999.0,69,-99.99,,,-99.99,,2013-03-29 06:23:00,
2013-03-29 01:32:00,39.0,30.0,30.25,ENE,60,6.0,-999.0,69,-99.99,,,-99.99,,2013-03-29 06:32:00,
2013-03-29 01:42:00,39.0,30.0,30.25,ENE,60,6.0,-999.0,69,-99.99,,,-99.99,,2013-03-29 06:42:00,
2013-03-29 01:52:00,39.0,30.0,30.25,NE,50,6.0,-999.0,69,-99.99,,,-99.99,,2013-03-29 06:52:00,
2013-03-29 02:03:00,39.0,30.0,30.25,NE,50,6.0,-999.0,69,-99.99,,,-99.99,,2013-03-29 07:03:00,
2013-03-29 02:12:00,39.0,30.0,30.25,NE,50,6.0,-999.0,69,-99.99,,,-99.99,,2013-03-29 07:12:00,
2013-03-29 02:22:00,39.0,30.0,30.24,ENE,70,6.0,-999.0,69,-99.99,,,-99.99,,2013-03-29 07:22:00,
2013-03-29 02:32:00,39.0,30.0,30.24,ENE,70,6.0,-999.0,69,-99.99,,,-99.99,,2013-03-29 07:32:00,
2013-03-29 02:42:00,39.0,30.0,30.23,ENE,60,6.0,-999.0,69,-99.99,,,-99.99,,2013-03-29 07:42:00,
2013-03-29 02:52:00,37.0,30.0,30.23,ENE,60,5.0,-999.0,74,-99.99,,,-99.99,,2013-03-29 07:52:00,
2013-03-29 03:02:00,37.0,30.0,30.23,NE,50,5.0,-999.0,74,-99.99,,,-99.99,,2013-03-29 08:02:00,
2013-03-29 03:12:00,37.0,30.0,30.23,NE,50,5.0,-999.0,74,-99.99,,,-99.99,,2013-03-29 08:12:00,
2013-03-29 03:22:00,37.0,30.0,30.23,NE,50,5.0,-999.0,74,-99.99,,,-99.99,,2013-03-29 08:22:00,
2013-03-29 03:32:00,37.0,30.0,30.23,NE,50,5.0,-999.0,74,-99.99,,,-99.99,,2013-03-29 08:32:00,
2013-03-29 03:42:00,37.0,30.0,30.23,ENE,60,6.0,-999.0,74,-99.99,,,-99.99,,2013-03-29 08:42:00,
2013-03-29 03:53:00,37.0,30.0,30.22,ENE,70,6.0,-999.0,74,-99.99,,,-99.99,,2013-03-29 08:53:00,
2013-03-29 04:02:00,37.0,30.0,30.21,East,80,5.0,-999.0,74,-99.99,,,-99.99,,2013-03-29 09:02:00,
2013-03-29 04:12:00,37.0,30.0,30.21,East,80,5.0,-999.0,74,-99.99,,,-99.99,,2013-03-29 09:12:00,
2013-03-29 04:22:00,37.0,30.0,30.21,East,80,5.0,-999.0,74,-99.99,,,-99.99,,2013-03-29 09:22:00,
2013-03-29 04:32:00,37.0,30.0,30.21,East,80,5.0,-999.0,74,-99.99,,,-99.99,,2013-03-29 09:32:00,
2013-03-29 04:42:00,37.0,30.0,30.21,East,80,5.0,-999.0,74,-99.99,,,-99.99,,2013-03-29 09:42:00,
2013-03-29 04:52:00,37.0,30.0,30.21,East,80,5.0,-999.0,74,-99.99,,,-99.99,,2013-03-29 09:52:00,
2013-03-29 05:02:00,37.0,30.0,30.21,East,100,5.0,-999.0,74,-99.99,,,-99.99,,2013-03-29 10:02:00,
2013-03-29 05:12:00,37.0,30.0,30.21,East,100,5.0,-999.0,74,-99.99,,,-99.99,,2013-03-29 10:12:00,
2013-03-29 05:22:00,37.0,30.0,30.21,East,100,5.0,-999.0,74,-99.99,,,-99.99,,2013-03-29 10:22:00,
2013-03-29 05:33:00,37.0,30.0,30.21,NE,50,3.0,-999.0,74,-99.99,,,-99.99,,2013-03-29 10:33:00,
2013-03-29 05:42:00,37.0,30.0,30.21,NE,50,3.0,-999.0,74,-99.99,,,-99.99,,2013-03-29 10:42:00,
2013-03-29 05:53:00,36.0,30.0,30.21,NE,50,5.0,-999.0,80,-99.99,,,-99.99,,2013-03-29 10:53:00,
2013-03-29 06:03:00,36.0,30.0,30.23,NE,50,3.0,-999.0,80,-99.99,,,-99.99,,2013-03-29 11:03:00,
2013-03-29 06:12:00,36.0,30.0,30.23,NE,50,3.0,-999.0,80,-99.99,,,-99.99,,2013-03-29 11:12:00,
2013-03-29 06:23:00,36.0,30.0,30.23,NE,50,3.0,-999.0,80,-99.99,,,-99.99,,2013-03-29 11:23:00,
2013-03-29 06:32:00,36.0,30.0,30.23,NE,50,3.0,-999.0,80,-99.99,,,-99.99,,2013-03-29 11:32:00,
2013-03-29 06:42:00,36.0,30.0,30.23,ENE,70,6.0,-999.0,80,-99.99,,,-99.99,,2013-03-29 11:42:00,
2013-03-29 06:53:00,36.0,30.0,30.23,ENE,70,5.0,-999.0,80,-99.99,,,-99.99,,2013-03-29 11:53:00,
2013-03-29 07:03:00,36.0,30.0,30.23,ENE,70,7.0,-999.0,80,-99.99,,,-99.99,,2013-03-29 12:03:00,
2013-03-29 07:12:00,36.0,30.0,30.23,ENE,70,7.0,-999.0,80,-99.99,,,-99.99,,2013-03-29 12:12:00,
2013-03-29 07:22:00,36.0,30.0,30.24,ENE,70,3.0,-999.0,80,-99.99,,,-99.99,,2013-03-29 12:22:00,
2013-03-29 07:32:00,36.0,30.0,30.24,East,80,6.0,-999.0,80,-99.99,,,-99.99,,2013-03-29 12:32:00,
2013-03-29 07:42:00,36.0,30.0,30.24,East,80,6.0,-999.0,80,-99.99,,,-99.99,,2013-03-29 12:42:00,
2013-03-29 07:53:00,36.0,30.0,30.24,East,80,6.0,-999.0,80,-99.99,,,-99.99,,2013-03-29 12:53:00,
2013-03-29 08:03:00,37.0,30.0,30.25,East,80,6.0,-999.0,74,-99.99,,,-99.99,,2013-03-29 13:03:00,
2013-03-29 08:12:00,37.0,30.0,30.25,East,80,6.0,-999.0,74,-99.99,,,-99.99,,2013-03-29 13:12:00,
2013-03-29 08:22:00,39.0,30.0,30.25,East,80,7.0,-999.0,69,-99.99,,,-99.99,,2013-03-29 13:22:00,
2013-03-29 08:32:00,39.0,30.0,30.25,East,80,7.0,-999.0,69,-99.99,,,-99.99,,2013-03-29 13:32:00,
2013-03-29 08:42:00,39.0,30.0,30.25,East,80,7.0,-999.0,69,-99.99,,,-99.99,,2013-03-29 13:42:00,
2013-03-29 08:53:00,43.0,30.0,30.25,East,90,6.0,-999.0,60,-99.99,,,-99.99,,2013-03-29 13:53:00,
2013-03-29 09:02:00,43.0,30.0,30.25,East,100,6.0,-999.0,60,-99.99,,,-99.99,,2013-03-29 14:02:00,
2013-03-29 09:12:00,43.0,30.0,30.25,East,100,6.0,-999.0,60,-99.99,,,-99.99,,2013-03-29 14:12:00,
2013-03-29 09:22:00,43.0,30.0,30.25,East,100,6.0,-999.0,60,-99.99,,,-99.99,,2013-03-29 14:22:00,
2013-03-29 09:32:00,45.0,32.0,30.26,East,100,8.0,-999.0,61,-99.99,,,-99.99,,2013-03-29 14:32:00,
2013-03-29 09:42:00,46.0,32.0,30.26,East,90,8.0,-999.0,57,-99.99,,,-99.99,,2013-03-29 14:42:00,
2013-03-29 09:53:00,46.0,32.0,30.26,East,90,8.0,-999.0,57,-99.99,,,-99.99,,2013-03-29 14:53:00,
2013-03-29 10:02:00,48.0,32.0,30.26,East,80,6.0,-999.0,53,-99.99,,,-99.99,,2013-03-29 15:02:00,
2013-03-29 10:12:00,48.0,32.0,30.26,East,80,6.0,-999.0,53,-99.99,,,-99.99,,2013-03-29 15:12:00,
2013-03-29 10:22:00,50.0,34.0,30.27,East,80,5.0,-999.0,53,-99.99,,,-99.99,,2013-03-29 15:22:00,
2013-03-29 10:33:00,50.0,34.0,30.27,ENE,60,7.0,-999.0,53,-99.99,,,-99.99,,2013-03-29 15:33:00,
2013-03-29 10:43:00,50.0,34.0,30.27,ENE,60,7.0,-999.0,53,-99.99,,,-99.99,,2013-03-29 15:43:00,
2013-03-29 10:53:00,52.0,36.0,30.27,East,80,5.0,-999.0,53,-99.99,,,-99.99,,2013-03-29 15:53:00,
2013-03-29 11:03:00,52.0,36.0,30.27,ENE,70,3.0,-999.0,53,-99.99,,,-99.99,,2013-03-29 16:03:00,
2013-03-29 11:12:00,52.0,36.0,30.27,ENE,70,3.0,-999.0,53,-99.99,,,-99.99,,2013-03-29 16:12:00,
2013-03-29 11:23:00,52.0,36.0,30.27,ENE,70,3.0,-999.0,53,-99.99,,,-99.99,,2013-03-29 16:23:00,
2013-03-29 11:32:00,54.0,37.0,30.27,ENE,70,5.0,-999.0,54,-99.99,,,-99.99,,2013-03-29 16:32:00,
2013-03-29 11:42:00,54.0,37.0,30.27,East,80,5.0,-999.0,54,-99.99,,,-99.99,,2013-03-29 16:42:00,
2013-03-29 11:53:00,54.0,37.0,30.27,East,80,5.0,-999.0,54,-99.99,,,-99.99,,2013-03-29 16:53:00,
2013-03-29 12:03:00,55.0,37.0,30.27,East,90,6.0,-999.0,50,-99.99,,,-99.99,,2013-03-29 17:03:00,
2013-03-29 12:12:00,55.0,37.0,30.27,East,90,6.0,-999.0,50,-99.99,,,-99.99,,2013-03-29 17:12:00,
2013-03-29 12:22:00,57.0,37.0,30.26,ESE,110,6.0,-999.0,47,-99.99,,,-99.99,,2013-03-29 17:22:00,
2013-03-29 12:33:00,57.0,37.0,30.26,East,100,9.0,-999.0,47,-99.99,,,-99.99,,2013-03-29 17:33:00,
2013-03-29 12:42:00,57.0,37.0,30.26,East,80,7.0,-999.0,47,-99.99,,,-99.99,,2013-03-29 17:42:00,
2013-03-29 12:53:00,59.0,37.0,30.26,ENE,60,3.0,-999.0,44,-99.99,,,-99.99,,2013-03-29 17:53:00,
2013-03-29 13:02:00,59.0,37.0,30.25,East,100,6.0,-999.0,44,-99.99,,,-99.99,,2013-03-29 18:02:00,
2013-03-29 13:12:00,59.0,37.0,30.25,East,100,6.0,-999.0,44,-99.99,,,-99.99,,2013-03-29 18:12:00,
2013-03-29 13:22:00,61.0,39.0,30.25,ENE,60,5.0,-999.0,44,-99.99,,,-99.99,,2013-03-29 18:22:00,
2013-03-29 13:32:00,61.0,37.0,30.25,ENE,60,8.0,-999.0,41,-99.99,,,-99.99,,2013-03-29 18:32:00,
2013-03-29 13:42:00,61.0,37.0,30.25,East,80,8.0,-999.0,41,-99.99,,,-99.99,,2013-03-29 18:42:00,
2013-03-29 13:52:00,61.0,37.0,30.24,East,90,7.0,-999.0,41,-99.99,,,-99.99,,2013-03-29 18:52:00,
2013-03-29 14:02:00,61.0,37.0,30.24,East,100,7.0,-999.0,41,-99.99,,,-99.99,,2013-03-29 19:02:00,
2013-03-29 14:12:00,61.0,37.0,30.24,East,100,7.0,-999.0,41,-99.99,,,-99.99,,2013-03-29 19:12:00,
2013-03-29 14:22:00,61.0,37.0,30.24,East,100,7.0,-999.0,41,-99.99,,,-99.99,,2013-03-29 19:22:00,
2013-03-29 14:32:00,61.0,37.0,30.24,East,100,7.0,-999.0,41,-99.99,,,-99.99,,2013-03-29 19:32:00,
2013-03-29 14:42:00,63.0,36.0,30.23,NE,50,5.0,-999.0,36,-99.99,,,-99.99,,2013-03-29 19:42:00,
2013-03-29 14:53:00,63.0,34.0,30.22,ESE,110,8.0,-999.0,33,-99.99,,,-99.99,,2013-03-29 19:53:00,
2013-03-29 15:02:00,63.0,36.0,30.21,ENE,70,7.0,-999.0,36,-99.99,,,-99.99,,2013-03-29 20:02:00,
2013-03-29 15:12:00,63.0,36.0,30.21,ENE,70,7.0,-999.0,36,-99.99,,,-99.99,,2013-03-29 20:12:00,
2013-03-29 15:22:00,63.0,32.0,30.21,NE,50,9.0,-999.0,31,-99.99,,,-99.99,,2013-03-29 20:22:00,
2013-03-29 15:33:00,63.0,32.0,30.21,East,100,5.0,-999.0,31,-99.99,,,-99.99,,2013-03-29 20:33:00,
2013-03-29 15:42:00,63.0,34.0,30.21,SE,130,7.0,-999.0,33,-99.99,,,-99.99,,2013-03-29 20:42:00,
2013-03-29 15:52:00,63.0,34.0,30.21,SE,130,7.0,-999.0,33,-99.99,,,-99.99,,2013-03-29 20:52:00,
2013-03-29 16:02:00,63.0,34.0,30.21,SE,130,7.0,-999.0,33,-99.99,,,-99.99,,2013-03-29 21:02:00,
2013-03-29 16:12:00,63.0,34.0,30.21,SE,130,7.0,-999.0,33,-99.99,,,-99.99,,2013-03-29 21:12:00,
2013-03-29 16:22:00,63.0,34.0,30.21,SE,130,7.0,-999.0,33,-99.99,,,-99.99,,2013-03-29 21:22:00,
2013-03-29 16:33:00,63.0,32.0,30.20,North,0,0.0,-999.0,31,-99.99,,,-99.99,,2013-03-29 21:33:00,
2013-03-29 16:43:00,63.0,32.0,30.20,North,0,0.0,-999.0,31,-99.99,,,-99.99,,2013-03-29 21:43:00,
2013-03-29 16:53:00,63.0,34.0,30.19,SE,140,5.0,-999.0,33,-99.99,,,-99.99,,2013-03-29 21:53:00,
2013-03-29 17:03:00,63.0,32.0,30.19,ESE,110,6.0,-999.0,31,-99.99,,,-99.99,,2013-03-29 22:03:00,
2013-03-29 17:12:00,63.0,32.0,30.19,ESE,110,6.0,-999.0,31,-99.99,,,-99.99,,2013-03-29 22:12:00,
2013-03-29 17:22:00,63.0,32.0,30.19,East,90,6.0,-999.0,31,-99.99,,,-99.99,,2013-03-29 22:22:00,
2013-03-29 17:33:00,63.0,34.0,30.19,East,90,6.0,-999.0,33,-99.99,,,-99.99,,2013-03-29 22:33:00,
2013-03-29 17:42:00,63.0,34.0,30.19,ESE,110,7.0,-999.0,33,-99.99,,,-99.99,,2013-03-29 22:42:00,
2013-03-29 17:54:00,63.0,32.0,30.19,East,80,5.0,-999.0,31,-99.99,,,-99.99,,2013-03-29 22:54:00,
2013-03-29 18:02:00,63.0,34.0,30.19,ENE,70,3.0,-999.0,33,-99.99,,,-99.99,,2013-03-29 23:02:00,
2013-03-29 18:12:00,63.0,34.0,30.19,ENE,70,3.0,-999.0,33,-99.99,,,-99.99,,2013-03-29 23:12:00,
2013-03-29 18:22:00,61.0,34.0,30.19,ENE,70,6.0,-999.0,36,-99.99,,,-99.99,,2013-03-29 23:22:00,
2013-03-29 18:32:00,61.0,34.0,30.19,East,100,6.0,-999.0,36,-99.99,,,-99.99,,2013-03-29 23:32:00,
2013-03-29 18:42:00,61.0,34.0,30.19,East,100,6.0,-999.0,36,-99.99,,,-99.99,,2013-03-29 23:42:00,
2013-03-29 18:52:00,59.0,34.0,30.19,ESE,110,5.0,-999.0,38,-99.99,,,-99.99,,2013-03-29 23:52:00,
2013-03-29 19:03:00,59.0,34.0,30.19,ESE,110,5.0,-999.0,38,-99.99,,,-99.99,,2013-03-30 00:03:00,
2013-03-29 19:12:00,59.0,34.0,30.19,ESE,110,5.0,-999.0,38,-99.99,,,-99.99,,2013-03-30 00:12:00,
2013-03-29 19:22:00,57.0,34.0,30.19,East,100,3.0,-999.0,41,-99.99,,,-99.99,,2013-03-30 00:22:00,
2013-03-29 19:32:00,57.0,36.0,30.19,ESE,110,5.0,-999.0,44,-99.99,,,-99.99,,2013-03-30 00:32:00,
2013-03-29 19:43:00,55.0,36.0,30.19,ESE,110,3.0,-999.0,47,-99.99,,,-99.99,,2013-03-30 00:43:00,
2013-03-29 19:53:00,55.0,36.0,30.19,ESE,110,3.0,-999.0,47,-99.99,,,-99.99,,2013-03-30 00:53:00,
2013-03-29 20:02:00,54.0,36.0,30.19,North,0,0.0,-999.0,50,-99.99,,,-99.99,,2013-03-30 01:02:00,
2013-03-29 20:12:00,54.0,36.0,30.19,North,0,0.0,-999.0,50,-99.99,,,-99.99,,2013-03-30 01:12:00,
2013-03-29 20:22:00,54.0,36.0,30.20,ESE,110,5.0,-999.0,50,-99.99,,,-99.99,,2013-03-30 01:22:00,
2013-03-29 20:32:00,54.0,37.0,30.20,East,100,3.0,-999.0,54,-99.99,,,-99.99,,2013-03-30 01:32:00,
2013-03-29 20:42:00,52.0,37.0,30.20,ESE,110,5.0,-999.0,57,-99.99,,,-99.99,,2013-03-30 01:42:00,
2013-03-29 20:53:00,52.0,37.0,30.21,ESE,110,5.0,-999.0,57,-99.99,,,-99.99,,2013-03-30 01:53:00,
2013-03-29 21:02:00,52.0,37.0,30.21,SE,130,3.0,-999.0,57,-99.99,,,-99.99,,2013-03-30 02:02:00,
2013-03-29 21:12:00,52.0,37.0,30.21,SE,130,3.0,-999.0,57,-99.99,,,-99.99,,2013-03-30 02:12:00,
2013-03-29 21:22:00,52.0,37.0,30.21,ESE,110,5.0,-999.0,57,-99.99,,,-99.99,,2013-03-30 02:22:00,
2013-03-29 21:32:00,50.0,37.0,30.21,ESE,110,3.0,-999.0,61,-99.99,,,-99.99,,2013-03-30 02:32:00,
2013-03-29 21:42:00,50.0,37.0,30.21,ESE,110,5.0,-999.0,61,-99.99,,,-99.99,,2013-03-30 02:42:00,
2013-03-29 21:53:00,50.0,37.0,30.21,East,100,5.0,-999.0,61,-99.99,,,-99.99,,2013-03-30 02:53:00,
2013-03-29 22:02:00,50.0,37.0,30.21,East,100,5.0,-999.0,61,-99.99,,,-99.99,,2013-03-30 03:02:00,
2013-03-29 22:12:00,50.0,37.0,30.21,East,100,5.0,-999.0,61,-99.99,,,-99.99,,2013-03-30 03:12:00,
2013-03-29 22:22:00,50.0,37.0,30.21,ESE,110,3.0,-999.0,61,-99.99,,,-99.99,,2013-03-30 03:22:00,
2013-03-29 22:33:00,50.0,37.0,30.21,ESE,110,3.0,-999.0,61,-99.99,,,-99.99,,2013-03-30 03:33:00,
2013-03-29 22:43:00,50.0,37.0,30.21,ESE,110,3.0,-999.0,61,-99.99,,,-99.99,,2013-03-30 03:43:00,
2013-03-29 22:53:00,50.0,37.0,30.21,ESE,110,3.0,-999.0,61,-99.99,,,-99.99,,2013-03-30 03:53:00,
2013-03-29 23:02:00,48.0,37.0,30.21,East,100,5.0,-999.0,66,-99.99,,,-99.99,,2013-03-30 04:02:00,
2013-03-29 23:12:00,48.0,37.0,30.21,East,100,5.0,-999.0,66,-99.99,,,-99.99,,2013-03-30 04:12:00,
2013-03-29 23:23:00,48.0,37.0,30.20,East,100,6.0,-999.0,66,-99.99,,,-99.99,,2013-03-30 04:23:00,
2013-03-29 23:32:00,48.0,37.0,30.20,East,100,5.0,-999.0,66,-99.99,,,-99.99,,2013-03-30 04:32:00,
2013-03-29 23:42:00,48.0,37.0,30.20,East,100,5.0,-999.0,66,-99.99,,,-99.99,,2013-03-30 04:42:00,
2013-03-29 23:53:00,48.0,37.0,30.20,East,100,5.0,-999.0,66,-99.99,,,-99.99,,2013-03-30 04:53:00,